Station History

Weather Underground - logo

Station Historical Data
Daily Summary for December 26, 2017 Units:  Metric    English   Both
« Previous Day
Next Day »
Daily Weekly Monthly Yearly Custom
  High: Low: Average:
Temperature: 17.1 °C 4.7 °C 9.3 °C
Dew Point: 6.4 °C 2.7 °C 4.2 °C
Humidity: 91 % 39 % 73 %
Wind Speed: 5.6 km/h 0 km/h 0.5 km/h
Wind Gust: 5.6 km/h - -
Wind:- - SW
Pressure: 1025.3 hPa 1022.2 hPa -
Precipitation: 0 mm    
Historical Graphs
 
 
Tabular Data for December 26, 2017
Time Temperature Dew Point Pressure Wind Wind Speed Wind Gust Humidity Rainfall Rate (Hourly)
00:01 6.2 °C 3.9 °C 1022.6 hPa Calm     85 % 0 mm
00:06 6.1 °C 3.8 °C 1022.6 hPa Calm     85 % 0 mm
00:07 6.1 °C 3.7 °C 1022.6 hPa Calm     85 % 0 mm
00:11 6 °C 3.8 °C 1022.6 hPa Calm     86 % 0 mm
00:12 6 °C 3.8 °C 1022.6 hPa Calm     86 % 0 mm
00:17 5.9 °C 3.8 °C 1022.2 hPa Calm     86 % 0 mm
00:21 5.8 °C 3.7 °C 1022.2 hPa Calm     86 % 0 mm
00:26 5.6 °C 3.4 °C 1022.6 hPa Calm     86 % 0 mm
00:27 5.6 °C 3.4 °C 1022.6 hPa Calm     86 % 0 mm
00:28 5.4 °C 3.3 °C 1022.6 hPa Calm     86 % 0 mm
00:33 5.2 °C 3.2 °C 1022.2 hPa Calm     87 % 0 mm
00:35 5.1 °C 3.1 °C 1022.2 hPa Calm     87 % 0 mm
00:38 5 °C 3.2 °C 1022.2 hPa Calm     88 % 0 mm
00:41 5 °C 3.3 °C 1022.6 hPa Calm     89 % 0 mm
00:46 4.9 °C 3.3 °C 1022.6 hPa Calm     89 % 0 mm
00:48 4.9 °C 3.2 °C 1022.6 hPa Calm     89 % 0 mm
00:49 4.9 °C 3.2 °C 1022.6 hPa Calm     89 % 0 mm
00:54 4.8 °C 3.2 °C 1022.6 hPa Calm     89 % 0 mm
00:58 4.8 °C 3.3 °C 1022.6 hPa Calm     90 % 0 mm
00:59 4.8 °C 3.3 °C 1022.6 hPa Calm     90 % 0 mm
01:04 4.8 °C 3.3 °C 1022.6 hPa Calm     90 % 0 mm
01:05 4.8 °C 3.3 °C 1022.6 hPa Calm     90 % 0 mm
01:06 4.9 °C 3.4 °C 1022.6 hPa Calm     90 % 0 mm
01:07 4.9 °C 3.4 °C 1022.6 hPa Calm     90 % 0 mm
01:11 4.9 °C 3.4 °C 1022.6 hPa Calm     90 % 0 mm
01:16 4.9 °C 3.3 °C 1022.9 hPa Calm     89 % 0 mm
01:17 4.9 °C 3.4 °C 1022.9 hPa Calm     90 % 0 mm
01:19 4.9 °C 3.4 °C 1022.9 hPa Calm     90 % 0 mm
01:24 4.9 °C 3.3 °C 1022.9 hPa Calm     89 % 0 mm
01:27 4.9 °C 3.2 °C 1022.9 hPa Calm     89 % 0 mm
01:32 4.9 °C 3.4 °C 1022.9 hPa Calm     90 % 0 mm
01:35 4.9 °C 3.4 °C 1022.9 hPa Calm     90 % 0 mm
01:36 5 °C 3.5 °C 1022.9 hPa Calm     90 % 0 mm
01:41 5.1 °C 3.6 °C 1023.2 hPa Calm     90 % 0 mm
01:43 5.1 °C 3.6 °C 1022.9 hPa Calm     90 % 0 mm
01:44 5.1 °C 3.6 °C 1022.9 hPa Calm     90 % 0 mm
01:49 5.2 °C 3.7 °C 1023.2 hPa Calm     90 % 0 mm
01:54 5.3 °C 3.7 °C 1023.2 hPa Calm     89 % 0 mm
01:56 5.4 °C 3.8 °C 1023.2 hPa Calm     89 % 0 mm
01:58 5.4 °C 3.8 °C 1023.2 hPa Calm     89 % 0 mm
02:02 5.5 °C 3.7 °C 1023.6 hPa Calm     88 % 0 mm
02:04 5.5 °C 3.7 °C 1023.2 hPa Calm     88 % 0 mm
02:07 5.5 °C 3.7 °C 1023.2 hPa Calm     88 % 0 mm
02:12 5.4 °C 3.6 °C 1023.2 hPa Calm     88 % 0 mm
02:13 5.4 °C 3.6 °C 1023.2 hPa Calm     88 % 0 mm
02:18 5.4 °C 3.6 °C 1023.6 hPa Calm     88 % 0 mm
02:20 5.4 °C 3.6 °C 1023.6 hPa Calm     88 % 0 mm
02:23 5.4 °C 3.7 °C 1023.6 hPa Calm     89 % 0 mm
02:27 5.5 °C 3.8 °C 1023.6 hPa Calm     89 % 0 mm
02:29 5.6 °C 3.9 °C 1023.6 hPa Calm     89 % 0 mm
02:34 5.8 °C 3.9 °C 1023.6 hPa Calm     88 % 0 mm
02:39 5.7 °C 3.7 °C 1023.6 hPa Calm     87 % 0 mm
02:40 5.7 °C 3.7 °C 1023.6 hPa Calm     87 % 0 mm
02:45 5.7 °C 3.7 °C 1023.6 hPa Calm     87 % 0 mm
02:46 5.7 °C 3.7 °C 1023.6 hPa Calm     87 % 0 mm
02:50 5.6 °C 3.8 °C 1023.6 hPa Calm     88 % 0 mm
02:51 5.6 °C 3.7 °C 1023.6 hPa Calm     88 % 0 mm
02:56 5.6 °C 3.7 °C 1023.6 hPa Calm     88 % 0 mm
02:58 5.6 °C 3.7 °C 1023.6 hPa Calm     88 % 0 mm
03:00 5.6 °C 3.7 °C 1023.6 hPa Calm     88 % 0 mm
03:05 5.6 °C 3.7 °C 1023.6 hPa Calm     88 % 0 mm
03:10 5.5 °C 3.7 °C 1023.6 hPa Calm     88 % 0 mm
03:15 5.4 °C 3.6 °C 1023.6 hPa Calm     88 % 0 mm
03:17 5.4 °C 3.6 °C 1023.6 hPa Calm     88 % 0 mm
03:19 5.4 °C 3.6 °C 1023.6 hPa Calm     88 % 0 mm
03:24 5.3 °C 3.7 °C 1023.2 hPa Calm     89 % 0 mm
03:29 5.5 °C 3.8 °C 1023.2 hPa Calm     89 % 0 mm
03:33 5.6 °C 3.9 °C 1023.2 hPa Calm     89 % 0 mm
03:36 5.7 °C 4 °C 1023.2 hPa Calm     89 % 0 mm
03:41 5.8 °C 4.2 °C 1023.2 hPa Calm     89 % 0 mm
03:44 5.9 °C 4.1 °C 1023.2 hPa Calm     88 % 0 mm
03:49 5.9 °C 4.1 °C 1023.2 hPa Calm     88 % 0 mm
03:51 5.9 °C 4.1 °C 1022.9 hPa Calm     88 % 0 mm
03:55 6.1 °C 4.2 °C 1022.9 hPa Calm     88 % 0 mm
03:57 6.1 °C 4.3 °C 1022.9 hPa Calm     88 % 0 mm
04:02 6.2 °C 4.2 °C 1022.9 hPa ESE 1.9 km/h   87 % 0 mm
04:03 6.2 °C 4.2 °C 1022.9 hPa Calm     87 % 0 mm
04:08 6.3 °C 4.2 °C 1022.9 hPa Calm     86 % 0 mm
04:11 6.4 °C 4.2 °C 1022.9 hPa Calm     86 % 0 mm
04:16 6.4 °C 4.3 °C 1022.9 hPa Calm     86 % 0 mm
04:17 6.4 °C 4.2 °C 1022.9 hPa Calm     86 % 0 mm
04:18 6.4 °C 4.3 °C 1022.9 hPa ESE 1.9 km/h 1.9 km/h 86 % 0 mm
04:23 6.4 °C 4.2 °C 1022.9 hPa Calm     86 % 0 mm
04:25 6.4 °C 4.2 °C 1022.9 hPa Calm     86 % 0 mm
04:27 6.4 °C 4.2 °C 1022.9 hPa Calm     86 % 0 mm
04:32 6.4 °C 4.2 °C 1022.9 hPa Calm     86 % 0 mm
04:34 6.4 °C 4.2 °C 1022.9 hPa Calm     86 % 0 mm
04:36 6.3 °C 4.1 °C 1023.2 hPa Calm     86 % 0 mm
04:39 6.2 °C 4.1 °C 1023.2 hPa Calm     86 % 0 mm
04:43 6.1 °C 3.9 °C 1023.2 hPa Calm     86 % 0 mm
04:48 6 °C 4 °C 1023.2 hPa Calm     87 % 0 mm
04:49 6.1 °C 4.1 °C 1023.2 hPa Calm     87 % 0 mm
04:54 6.1 °C 4.1 °C 1023.2 hPa Calm     87 % 0 mm
04:55 6.1 °C 4.1 °C 1023.2 hPa Calm     87 % 0 mm
05:00 6.1 °C 4.1 °C 1023.2 hPa ESE 1.9 km/h   87 % 0 mm
05:02 6.2 °C 4.2 °C 1023.2 hPa Calm     87 % 0 mm
05:07 6.2 °C 4.1 °C 1023.2 hPa Calm     86 % 0 mm
05:08 6.2 °C 4.1 °C 1023.2 hPa Calm     86 % 0 mm
05:13 6.3 °C 4.1 °C 1023.2 hPa Calm     86 % 0 mm
05:15 6.2 °C 4.1 °C 1023.2 hPa Calm     86 % 0 mm
05:20 6.3 °C 4.1 °C 1023.2 hPa Calm     86 % 0 mm
05:21 6.3 °C 4.1 °C 1023.2 hPa Calm     86 % 0 mm
05:26 6.2 °C 4.1 °C 1023.2 hPa Calm     86 % 0 mm
05:31 6.2 °C 4 °C 1023.2 hPa ESE 1.9 km/h   86 % 0 mm
05:32 6.2 °C 4 °C 1023.2 hPa Calm     86 % 0 mm
05:37 6.2 °C 4.1 °C 1023.2 hPa Calm     86 % 0 mm
05:42 6.2 °C 4.1 °C 1023.2 hPa Calm     86 % 0 mm
05:47 6.2 °C 4 °C 1023.2 hPa Calm     86 % 0 mm
05:49 6.2 °C 4 °C 1023.2 hPa Calm     86 % 0 mm
05:54 6.1 °C 4.1 °C 1023.6 hPa Calm     87 % 0 mm
05:55 6.1 °C 4.1 °C 1023.2 hPa Calm     87 % 0 mm
06:00 5.9 °C 3.9 °C 1023.2 hPa Calm     87 % 0 mm
06:01 5.9 °C 3.9 °C 1023.2 hPa Calm     87 % 0 mm
06:06 5.8 °C 3.9 °C 1023.2 hPa Calm     88 % 0 mm
06:10 5.7 °C 3.9 °C 1023.6 hPa Calm     88 % 0 mm
06:12 5.7 °C 3.9 °C 1023.2 hPa Calm     88 % 0 mm
06:16 5.7 °C 4 °C 1023.2 hPa Calm     89 % 0 mm
06:18 5.7 °C 4 °C 1023.2 hPa Calm     89 % 0 mm
06:23 5.5 °C 3.8 °C 1023.2 hPa ESE 1.9 km/h   89 % 0 mm
06:24 5.4 °C 3.8 °C 1023.2 hPa Calm     89 % 0 mm
06:29 5.3 °C 3.6 °C 1023.2 hPa ESE 3.7 km/h 3.7 km/h 89 % 0 mm
06:34 5.1 °C 3.6 °C 1023.6 hPa ESE 1.9 km/h   90 % 0 mm
06:35 5.1 °C 3.6 °C 1023.6 hPa ESE 1.9 km/h   90 % 0 mm
06:40 4.9 °C 3.4 °C 1023.6 hPa Calm     90 % 0 mm
06:43 4.9 °C 3.4 °C 1023.6 hPa Calm     90 % 0 mm
06:48 4.8 °C 3.3 °C 1023.6 hPa Calm     90 % 0 mm
06:49 4.8 °C 3.3 °C 1023.6 hPa Calm     90 % 0 mm
06:51 4.8 °C 3.3 °C 1023.6 hPa Calm     90 % 0 mm
06:55 4.7 °C 3.4 °C 1023.6 hPa Calm     91 % 0 mm
06:57 4.7 °C 3.4 °C 1023.6 hPa Calm     91 % 0 mm
07:00 4.7 °C 3.3 °C 1023.9 hPa Calm     91 % 0 mm
07:03 4.7 °C 3.3 °C 1023.6 hPa Calm     91 % 0 mm
07:08 4.7 °C 3.4 °C 1023.6 hPa ESE 1.6 km/h 1.6 km/h 91 % 0 mm
07:09 4.7 °C 3.4 °C 1023.9 hPa ESE 1.9 km/h 1.9 km/h 91 % 0 mm
07:14 4.8 °C 3.5 °C 1023.6 hPa Calm     91 % 0 mm
07:19 4.8 °C 3.5 °C 1023.9 hPa Calm     91 % 0 mm
07:20 4.8 °C 3.5 °C 1023.9 hPa Calm     91 % 0 mm
07:23 4.9 °C 3.6 °C 1023.9 hPa Calm     91 % 0 mm
07:25 4.9 °C 3.6 °C 1023.9 hPa Calm     91 % 0 mm
07:30 4.9 °C 3.6 °C 1023.9 hPa Calm     91 % 0 mm
07:33 4.9 °C 3.6 °C 1023.9 hPa Calm     91 % 0 mm
07:38 5 °C 3.7 °C 1023.9 hPa Calm     91 % 0 mm
07:41 5.1 °C 3.7 °C 1023.9 hPa Calm     91 % 0 mm
07:46 5.2 °C 3.7 °C 1023.9 hPa Calm     90 % 0 mm
07:47 5.2 °C 3.7 °C 1023.9 hPa Calm     90 % 0 mm
07:52 5.3 °C 3.8 °C 1024.3 hPa Calm     90 % 0 mm
07:54 5.3 °C 3.8 °C 1024.3 hPa Calm     90 % 0 mm
07:59 5.5 °C 4 °C 1024.3 hPa Calm     90 % 0 mm
08:00 5.6 °C 4.1 °C 1024.3 hPa Calm     90 % 0 mm
08:02 5.7 °C 4.2 °C 1024.3 hPa Calm     90 % 0 mm
08:05 5.8 °C 4.3 °C 1024.3 hPa Calm     90 % 0 mm
08:10 6.2 °C 4.6 °C 1024.3 hPa Calm     89 % 0 mm
08:11 6.3 °C 4.6 °C 1024.3 hPa Calm     89 % 0 mm
08:16 6.9 °C 5.3 °C 1024.3 hPa Calm     89 % 0 mm
08:19 7.3 °C 5.1 °C 1024.3 hPa Calm     86 % 0 mm
08:21 7.3 °C 5 °C 1024.3 hPa Calm     85 % 0 mm
08:26 7.5 °C 4.8 °C 1024.3 hPa Calm     83 % 0 mm
08:31 7.7 °C 4.9 °C 1024.3 hPa Calm     83 % 0 mm
08:32 7.7 °C 4.9 °C 1024.3 hPa Calm     83 % 0 mm
08:37 7.8 °C 5.1 °C 1024.3 hPa Calm     83 % 0 mm
08:39 7.8 °C 5.1 °C 1024.6 hPa Calm     83 % 0 mm
08:44 7.8 °C 4.9 °C 1024.3 hPa Calm     82 % 0 mm
08:45 7.8 °C 4.9 °C 1024.3 hPa Calm     82 % 0 mm
08:48 7.9 °C 5 °C 1024.3 hPa Calm     82 % 0 mm
08:52 7.9 °C 5.2 °C 1024.6 hPa Calm     83 % 0 mm
08:57 8.1 °C 5.2 °C 1024.6 hPa Calm     82 % 0 mm
08:59 8.3 °C 5.4 °C 1024.6 hPa Calm     82 % 0 mm
09:04 8.7 °C 5.4 °C 1024.6 hPa Calm     80 % 0 mm
09:07 9.1 °C 5.4 °C 1024.6 hPa Calm     78 % 0 mm
09:10 9.3 °C 5.4 °C 1024.6 hPa Calm     77 % 0 mm
09:20 9.8 °C 5.2 °C 1024.9 hPa East 1.9 km/h   73 % 0 mm
09:21 9.8 °C 5.2 °C 1024.9 hPa East 1.9 km/h   73 % 0 mm
09:26 10.3 °C 5.7 °C 1024.9 hPa ESE 1.9 km/h   73 % 0 mm
09:27 10.4 °C 5.6 °C 1024.9 hPa Calm     72 % 0 mm
09:28 10.5 °C 5.7 °C 1024.9 hPa Calm     72 % 0 mm
09:33 10.6 °C 5.5 °C 1025.3 hPa Calm     71 % 0 mm
09:39 10.6 °C 5.3 °C 1025.3 hPa Calm     70 % 0 mm
09:40 10.6 °C 5.4 °C 1025.3 hPa Calm     70 % 0 mm
09:45 10.8 °C 5.6 °C 1025.3 hPa Calm     70 % 0 mm
09:47 10.9 °C 5.6 °C 1025.3 hPa Calm     70 % 0 mm
09:52 11 °C 5.5 °C 1025.3 hPa Calm     69 % 0 mm
09:53 11 °C 5.3 °C 1025.3 hPa Calm     68 % 0 mm
09:56 10.9 °C 5.3 °C 1025.3 hPa Calm     68 % 0 mm
10:00 10.9 °C 5.3 °C 1025.3 hPa Calm     68 % 0 mm
10:02 11 °C 5.5 °C 1025.3 hPa Calm     69 % 0 mm
10:05 11.2 °C 5.7 °C 1025.3 hPa Calm     69 % 0 mm
10:10 11.6 °C 5.8 °C 1025.3 hPa Calm     68 % 0 mm
10:11 11.6 °C 5.8 °C 1025.3 hPa Calm     68 % 0 mm
10:13 11.7 °C 5.8 °C 1025.3 hPa Calm     67 % 0 mm
10:16 11.8 °C 5.6 °C 1025.3 hPa Calm     66 % 0 mm
10:21 11.9 °C 5.5 °C 1025.3 hPa Calm     65 % 0 mm
10:26 11.8 °C 5.4 °C 1024.9 hPa Calm     65 % 0 mm
10:27 11.8 °C 5.4 °C 1024.9 hPa Calm     65 % 0 mm
10:32 11.9 °C 5.7 °C 1024.9 hPa Calm     66 % 0 mm
10:37 12.1 °C 5.9 °C 1024.9 hPa Calm     66 % 0 mm
10:39 12.3 °C 5.9 °C 1024.9 hPa Calm     65 % 0 mm
10:41 12.4 °C 5.8 °C 1024.9 hPa WNW 1.9 km/h 1.9 km/h 64 % 0 mm
10:45 12.4 °C 5.8 °C 1024.9 hPa NW 1.9 km/h 1.9 km/h 64 % 0 mm
10:48 12.5 °C 5.7 °C 1024.9 hPa West 1.9 km/h 1.9 km/h 63 % 0 mm
10:53 12.6 °C 6.2 °C 1024.9 hPa Calm     65 % 0 mm
10:54 12.7 °C 6.1 °C 1024.9 hPa SSW 1.9 km/h   64 % 0 mm
10:58 13.1 °C 6.4 °C 1024.9 hPa Calm     64 % 0 mm
11:03 13.4 °C 6.3 °C 1024.9 hPa SE 3.2 km/h 3.2 km/h 62 % 0 mm
11:08 13.8 °C 6.2 °C 1024.6 hPa South 1.9 km/h   60 % 0 mm
11:11 13.9 °C 6.3 °C 1024.6 hPa SE 1.9 km/h   60 % 0 mm
11:13 13.9 °C 5.8 °C 1024.6 hPa ESE 1.6 km/h 1.6 km/h 58 % 0 mm
11:16 13.8 °C 5.7 °C 1024.6 hPa NW 1.9 km/h   58 % 0 mm
11:21 13.7 °C 5.8 °C 1024.6 hPa Calm     59 % 0 mm
11:26 13.9 °C 5.5 °C 1024.6 hPa Calm     57 % 0 mm
11:31 13.9 °C 5.6 °C 1024.6 hPa NW 3.7 km/h 3.7 km/h 57 % 0 mm
11:32 13.9 °C 5.6 °C 1024.6 hPa NW 1.9 km/h 1.9 km/h 57 % 0 mm
11:37 14 °C 5.3 °C 1024.3 hPa West 1.9 km/h 1.9 km/h 56 % 0 mm
11:40 13.9 °C 5.3 °C 1024.3 hPa WNW 1.9 km/h   56 % 0 mm
11:45 14.1 °C 5.4 °C 1024.3 hPa WNW 1.9 km/h 1.9 km/h 56 % 0 mm
11:47 14.2 °C 6.1 °C 1023.9 hPa Calm     58 % 0 mm
11:52 14.4 °C 5.2 °C 1023.9 hPa NW 3.7 km/h 3.7 km/h 54 % 0 mm
11:57 14.4 °C 5.2 °C 1023.9 hPa North 1.9 km/h   54 % 0 mm
11:59 14.6 °C 5.1 °C 1023.9 hPa ENE 1.9 km/h   53 % 0 mm
12:03 14.7 °C 5.5 °C 1023.6 hPa East 1.6 km/h 1.6 km/h 54 % 0 mm
12:07 15.1 °C 5.6 °C 1023.6 hPa Calm     53 % 0 mm
12:09 15.2 °C 5.4 °C 1023.6 hPa ENE 1.9 km/h 1.9 km/h 52 % 0 mm
12:14 15.3 °C 5.5 °C 1023.2 hPa Calm     52 % 0 mm
12:16 15.3 °C 5.8 °C 1023.2 hPa Calm     53 % 0 mm
12:17 15.4 °C 5.8 °C 1023.2 hPa Calm     53 % 0 mm
12:21 15.5 °C 5.4 °C 1023.2 hPa NW 1.9 km/h   51 % 0 mm
12:23 15.4 °C 5.3 °C 1023.2 hPa West 1.9 km/h 1.9 km/h 51 % 0 mm
12:28 15.3 °C 5.2 °C 1023.2 hPa WNW 1.9 km/h 1.9 km/h 51 % 0 mm
12:29 15.3 °C 5.2 °C 1023.2 hPa WNW 1.9 km/h 1.9 km/h 51 % 0 mm
12:34 15.4 °C 5.3 °C 1023.2 hPa NW 1.9 km/h   51 % 0 mm
12:35 15.4 °C 5 °C 1022.9 hPa WNW 1.9 km/h 1.9 km/h 50 % 0 mm
12:40 15.4 °C 5.1 °C 1022.9 hPa WSW 1.9 km/h   50 % 0 mm
12:41 15.5 °C 5.1 °C 1022.9 hPa NNW 3.2 km/h 3.2 km/h 50 % 0 mm
12:44 15.6 °C 4.9 °C 1022.9 hPa WSW 3.7 km/h 3.7 km/h 49 % 0 mm
12:49 15.7 °C 5 °C 1022.9 hPa WNW 1.9 km/h 1.9 km/h 49 % 0 mm
12:52 15.8 °C 5.1 °C 1022.9 hPa Calm     49 % 0 mm
12:54 15.9 °C 4.9 °C 1022.6 hPa NW 1.9 km/h   48 % 0 mm
12:59 16.1 °C 4.8 °C 1022.6 hPa SE 1.9 km/h 1.9 km/h 47 % 0 mm
13:04 16.2 °C 4.5 °C 1022.6 hPa NNW 1.9 km/h 1.9 km/h 46 % 0 mm
13:05 16.2 °C 4.8 °C 1022.6 hPa Calm     47 % 0 mm
13:10 16.3 °C 4.4 °C 1022.6 hPa ENE 1.9 km/h   45 % 0 mm
13:12 16.3 °C 4.4 °C 1022.6 hPa ENE 1.9 km/h   45 % 0 mm
13:17 16.4 °C 5.1 °C 1022.6 hPa Calm     47 % 0 mm
13:18 16.5 °C 4.5 °C 1022.6 hPa ENE 1.9 km/h   45 % 0 mm
13:24 16.5 °C 4.5 °C 1022.6 hPa West 1.9 km/h   45 % 0 mm
13:25 16.4 °C 4.4 °C 1022.6 hPa WNW 3.7 km/h 3.7 km/h 45 % 0 mm
13:26 16.4 °C 4.2 °C 1022.2 hPa WNW 1.9 km/h   44 % 0 mm
13:31 16.6 °C 4.6 °C 1022.2 hPa NW 1.9 km/h 1.9 km/h 45 % 0 mm
13:36 16.7 °C 4 °C 1022.2 hPa West 1.9 km/h 1.9 km/h 43 % 0 mm
13:37 16.7 °C 4.4 °C 1022.2 hPa West 1.9 km/h 1.9 km/h 44 % 0 mm
13:38 16.7 °C 4.4 °C 1022.2 hPa West 1.9 km/h   44 % 0 mm
13:43 16.9 °C 3.9 °C 1022.2 hPa Calm     42 % 0 mm
13:45 16.9 °C 3.9 °C 1022.2 hPa Calm     42 % 0 mm
13:49 16.9 °C 3.9 °C 1022.2 hPa WNW 1.9 km/h   42 % 0 mm
13:50 16.9 °C 4.3 °C 1022.2 hPa Calm     43 % 0 mm
13:55 17.1 °C 4.4 °C 1022.2 hPa NW 3.2 km/h 3.2 km/h 43 % 0 mm
14:00 17.1 °C 4.1 °C 1022.2 hPa Calm     42 % 0 mm
14:02 17.1 °C 4.1 °C 1022.2 hPa Calm     42 % 0 mm
14:08 17.1 °C 3.7 °C 1022.2 hPa NW 3.7 km/h 3.7 km/h 41 % 0 mm
14:09 17 °C 3.7 °C 1022.2 hPa West 1.9 km/h 1.9 km/h 41 % 0 mm
14:14 17 °C 4 °C 1022.2 hPa West 1.6 km/h 1.6 km/h 42 % 0 mm
14:17 17 °C 4 °C 1022.2 hPa North 5.6 km/h 5.6 km/h 42 % 0 mm
14:19 17.1 °C 3.7 °C 1022.2 hPa NW 1.9 km/h   41 % 0 mm
14:24 17.1 °C 3.7 °C 1022.2 hPa Calm     41 % 0 mm
14:25 17.1 °C 4.1 °C 1022.2 hPa WNW 3.2 km/h 3.2 km/h 42 % 0 mm
14:26 17.1 °C 3.7 °C 1022.2 hPa NW 3.7 km/h 3.7 km/h 41 % 0 mm
14:31 17.1 °C 4.1 °C 1022.2 hPa Calm     42 % 0 mm
14:32 17.1 °C 3.7 °C 1022.2 hPa West 1.9 km/h 1.9 km/h 41 % 0 mm
14:36 17 °C 3.7 °C 1022.2 hPa Calm     41 % 0 mm
14:38 17 °C 3.7 °C 1022.2 hPa Calm     41 % 0 mm
14:43 17 °C 4 °C 1022.6 hPa Calm     42 % 0 mm
14:45 17 °C 3.7 °C 1022.2 hPa NW 1.9 km/h 1.9 km/h 41 % 0 mm
14:48 17 °C 3.3 °C 1022.2 hPa Calm     40 % 0 mm
14:53 16.9 °C 2.9 °C 1022.2 hPa Calm     39 % 0 mm
14:54 16.9 °C 2.9 °C 1022.2 hPa Calm     39 % 0 mm
14:59 16.9 °C 3.2 °C 1022.2 hPa SE 1.9 km/h   40 % 0 mm
15:02 16.9 °C 3.2 °C 1022.2 hPa ESE 1.9 km/h   40 % 0 mm
15:03 16.9 °C 3.2 °C 1022.2 hPa Calm     40 % 0 mm
15:08 16.9 °C 3.2 °C 1022.2 hPa Calm     40 % 0 mm
15:12 16.8 °C 3.2 °C 1022.2 hPa SE 1.9 km/h   40 % 0 mm
15:14 16.8 °C 3.5 °C 1022.2 hPa Calm     41 % 0 mm
15:17 16.8 °C 3.4 °C 1022.2 hPa NW 1.9 km/h   41 % 0 mm
15:21 16.8 °C 3.4 °C 1022.2 hPa Calm     41 % 0 mm
15:23 16.8 °C 3.8 °C 1022.2 hPa Calm     42 % 0 mm
15:27 16.7 °C 3.4 °C 1022.2 hPa Calm     41 % 0 mm
15:30 16.7 °C 3.7 °C 1022.2 hPa Calm     42 % 0 mm
15:32 16.7 °C 3.3 °C 1022.2 hPa Calm     41 % 0 mm
15:37 16.7 °C 3.7 °C 1022.2 hPa Calm     42 % 0 mm
15:39 16.7 °C 3.7 °C 1022.2 hPa Calm     42 % 0 mm
15:44 16.6 °C 3.6 °C 1022.2 hPa WNW 1.9 km/h   42 % 0 mm
15:45 16.6 °C 3.6 °C 1022.2 hPa Calm     42 % 0 mm
15:48 16.6 °C 3.6 °C 1022.2 hPa Calm     42 % 0 mm
15:53 16.5 °C 3.9 °C 1022.2 hPa WNW 1.9 km/h 1.9 km/h 43 % 0 mm
15:56 16.4 °C 4.2 °C 1022.2 hPa Calm     44 % 0 mm
16:01 16.3 °C 4.4 °C 1022.2 hPa Calm     45 % 0 mm
16:02 16.3 °C 4.4 °C 1022.2 hPa Calm     45 % 0 mm
16:03 16.3 °C 4.4 °C 1022.2 hPa Calm     45 % 0 mm
16:08 16.2 °C 4.8 °C 1022.2 hPa Calm     47 % 0 mm
16:11 16.1 °C 4.7 °C 1022.2 hPa Calm     47 % 0 mm
16:15 15.9 °C 4.6 °C 1022.2 hPa Calm     47 % 0 mm
16:16 15.9 °C 4.6 °C 1022.2 hPa Calm     47 % 0 mm
16:21 15.7 °C 4.7 °C 1022.2 hPa Calm     48 % 0 mm
16:23 15.7 °C 4.7 °C 1022.2 hPa Calm     48 % 0 mm
16:28 15.4 °C 5 °C 1022.2 hPa Calm     50 % 0 mm
16:34 15.1 °C 5.3 °C 1022.6 hPa WNW 1.9 km/h 1.9 km/h 52 % 0 mm
16:39 15 °C 5.2 °C 1022.6 hPa Calm     52 % 0 mm
16:40 14.9 °C 5.2 °C 1022.6 hPa Calm     52 % 0 mm
16:45 14.8 °C 5.3 °C 1022.6 hPa Calm     53 % 0 mm
16:46 14.7 °C 5.2 °C 1022.6 hPa Calm     53 % 0 mm
16:49 14.4 °C 5.2 °C 1022.6 hPa Calm     54 % 0 mm
16:52 14.2 °C 5.2 °C 1022.6 hPa Calm     55 % 0 mm
16:57 13.8 °C 5.2 °C 1022.6 hPa Calm     56 % 0 mm
16:58 13.7 °C 5.3 °C 1022.6 hPa Calm     57 % 0 mm
17:03 13.2 °C 5.4 °C 1022.6 hPa Calm     59 % 0 mm
17:09 12.8 °C 5.2 °C 1022.9 hPa Calm     60 % 0 mm
17:14 12.4 °C 5.1 °C 1022.9 hPa Calm     61 % 0 mm
17:19 12 °C 5.2 °C 1022.9 hPa Calm     63 % 0 mm
17:20 11.9 °C 5.1 °C 1022.9 hPa Calm     63 % 0 mm
17:25 11.6 °C 5.2 °C 1022.9 hPa Calm     65 % 0 mm
17:26 11.5 °C 5.4 °C 1022.9 hPa Calm     66 % 0 mm
17:31 11.2 °C 5.3 °C 1022.9 hPa Calm     67 % 0 mm
17:32 11.1 °C 5.2 °C 1022.9 hPa Calm     67 % 0 mm
17:37 10.8 °C 5.1 °C 1022.9 hPa Calm     68 % 0 mm
17:39 10.7 °C 5.2 °C 1022.9 hPa Calm     69 % 0 mm
17:43 10.4 °C 5.2 °C 1023.2 hPa Calm     70 % 0 mm
17:48 10.2 °C 5.2 °C 1023.2 hPa Calm     71 % 0 mm
17:51 10.1 °C 5.1 °C 1023.2 hPa Calm     71 % 0 mm
17:53 10 °C 5.2 °C 1023.2 hPa Calm     72 % 0 mm
17:57 9.9 °C 5.3 °C 1023.2 hPa Calm     73 % 0 mm
18:02 9.8 °C 5.2 °C 1023.2 hPa Calm     73 % 0 mm
18:04 9.6 °C 5.2 °C 1023.2 hPa Calm     74 % 0 mm
18:09 9.5 °C 5.1 °C 1023.2 hPa Calm     74 % 0 mm
18:12 9.4 °C 5.1 °C 1023.2 hPa Calm     74 % 0 mm
18:15 9.4 °C 5 °C 1023.2 hPa Calm     74 % 0 mm
18:18 9.3 °C 4.9 °C 1023.2 hPa Calm     74 % 0 mm
18:23 9.2 °C 5 °C 1023.2 hPa Calm     75 % 0 mm
18:28 9.3 °C 5.1 °C 1023.6 hPa Calm     75 % 0 mm
18:29 9.3 °C 5.1 °C 1023.6 hPa Calm     75 % 0 mm
18:34 9.2 °C 4.8 °C 1023.6 hPa Calm     74 % 0 mm
18:35 9.2 °C 4.8 °C 1023.6 hPa Calm     74 % 0 mm
18:40 9.3 °C 4.7 °C 1023.2 hPa Calm     73 % 0 mm
18:45 9.6 °C 4.6 °C 1023.6 hPa Calm     71 % 0 mm
18:47 9.6 °C 4.6 °C 1023.6 hPa Calm     71 % 0 mm
18:52 9.4 °C 4.4 °C 1023.6 hPa Calm     71 % 0 mm
18:53 9.4 °C 4.4 °C 1023.6 hPa Calm     71 % 0 mm
18:58 9.1 °C 4.1 °C 1023.6 hPa Calm     71 % 0 mm
19:03 8.9 °C 3.9 °C 1023.6 hPa Calm     71 % 0 mm
19:05 8.8 °C 4.1 °C 1023.6 hPa Calm     72 % 0 mm
19:08 8.7 °C 3.9 °C 1023.9 hPa Calm     72 % 0 mm
19:14 8.4 °C 3.9 °C 1023.9 hPa Calm     73 % 0 mm
19:19 8.3 °C 3.5 °C 1023.9 hPa Calm     72 % 0 mm
19:23 8.3 °C 3.7 °C 1023.9 hPa Calm     73 % 0 mm
19:24 8.3 °C 3.7 °C 1023.9 hPa Calm     73 % 0 mm
19:28 8.3 °C 3.7 °C 1023.9 hPa Calm     73 % 0 mm
19:29 8.3 °C 3.5 °C 1023.9 hPa Calm     72 % 0 mm
19:34 8.2 °C 3.4 °C 1023.9 hPa Calm     72 % 0 mm
19:35 8.2 °C 3.4 °C 1023.9 hPa Calm     72 % 0 mm
19:40 8.2 °C 3.7 °C 1023.9 hPa Calm     73 % 0 mm
19:45 8.1 °C 3.5 °C 1023.9 hPa Calm     73 % 0 mm
19:47 8 °C 3.4 °C 1023.9 hPa Calm     73 % 0 mm
19:52 8.1 °C 3.5 °C 1023.9 hPa Calm     73 % 0 mm
19:54 8.1 °C 3.5 °C 1023.9 hPa Calm     73 % 0 mm
19:57 7.9 °C 3.6 °C 1023.9 hPa Calm     74 % 0 mm
20:02 7.8 °C 3.6 °C 1023.9 hPa Calm     75 % 0 mm
20:03 7.8 °C 3.6 °C 1023.9 hPa Calm     75 % 0 mm
20:08 7.6 °C 3.4 °C 1023.9 hPa Calm     75 % 0 mm
20:13 7.6 °C 3.6 °C 1023.9 hPa Calm     76 % 0 mm
20:16 7.5 °C 3.6 °C 1023.9 hPa Calm     76 % 0 mm
20:18 7.5 °C 3.6 °C 1023.9 hPa Calm     76 % 0 mm
20:23 7.3 °C 3.4 °C 1023.9 hPa Calm     76 % 0 mm
20:24 7.3 °C 3.5 °C 1023.9 hPa Calm     77 % 0 mm
20:29 6.8 °C 3.3 °C 1024.3 hPa Calm     78 % 0 mm
20:30 6.8 °C 3.2 °C 1024.3 hPa Calm     78 % 0 mm
20:35 6.6 °C 3.2 °C 1024.3 hPa Calm     79 % 0 mm
20:36 6.6 °C 3.2 °C 1024.3 hPa Calm     79 % 0 mm
20:41 6.6 °C 3.3 °C 1024.3 hPa Calm     80 % 0 mm
20:44 6.6 °C 3.4 °C 1024.6 hPa Calm     80 % 0 mm
20:47 6.7 °C 3.4 °C 1024.6 hPa Calm     80 % 0 mm
20:50 6.8 °C 3.6 °C 1024.6 hPa Calm     80 % 0 mm
20:52 6.9 °C 3.7 °C 1024.6 hPa Calm     80 % 0 mm
20:57 7 °C 3.8 °C 1024.9 hPa Calm   0.2 km/h 80 % 0 mm
21:01 7.1 °C 3.7 °C 1024.9 hPa NNW 1.9 km/h 1.9 km/h 79 % 0 mm
21:02 7.1 °C 3.7 °C 1024.9 hPa NNW 1.9 km/h 1.9 km/h 79 % 0 mm
21:07 7.2 °C 3.6 °C 1024.9 hPa Calm     78 % 0 mm
21:09 7.2 °C 3.6 °C 1024.9 hPa Calm     78 % 0 mm
21:13 7.1 °C 3.6 °C 1024.9 hPa Calm     78 % 0 mm
21:18 7.2 °C 3.6 °C 1025.3 hPa WNW 1.9 km/h   78 % 0 mm
21:19 7.2 °C 3.6 °C 1025.3 hPa Calm     78 % 0 mm
21:24 7.2 °C 3.7 °C 1025.3 hPa Calm     78 % 0 mm
21:29 7.2 °C 3.6 °C 1025.3 hPa Calm     78 % 0 mm
21:35 7.1 °C 3.6 °C 1024.9 hPa Calm     78 % 0 mm
21:36 7.1 °C 3.3 °C 1024.9 hPa Calm     77 % 0 mm
21:39 7.1 °C 3.6 °C 1024.9 hPa Calm     78 % 0 mm
21:41 7.2 °C 3.4 °C 1024.9 hPa Calm     77 % 0 mm
21:46 7.2 °C 3.4 °C 1024.9 hPa Calm     77 % 0 mm
21:47 7.2 °C 3.4 °C 1024.9 hPa Calm     77 % 0 mm
21:52 7 °C 3.2 °C 1024.9 hPa Calm     77 % 0 mm
21:54 6.9 °C 3.4 °C 1024.9 hPa Calm     78 % 0 mm
21:59 6.8 °C 3.3 °C 1024.6 hPa Calm     78 % 0 mm
22:03 6.7 °C 3.2 °C 1024.9 hPa Calm     78 % 0 mm
22:08 6.6 °C 3 °C 1024.6 hPa Calm     78 % 0 mm
22:09 6.6 °C 3.2 °C 1024.6 hPa Calm     79 % 0 mm
22:14 6.6 °C 3.2 °C 1024.6 hPa Calm     79 % 0 mm
22:15 6.5 °C 3.1 °C 1024.6 hPa Calm     79 % 0 mm
22:20 6.2 °C 2.9 °C 1024.6 hPa Calm     80 % 0 mm
22:21 6.1 °C 3.1 °C 1024.6 hPa Calm     81 % 0 mm
22:22 6.1 °C 3.1 °C 1024.6 hPa Calm     81 % 0 mm
22:26 5.8 °C 2.9 °C 1024.6 hPa Calm     82 % 0 mm
22:31 5.6 °C 3.1 °C 1024.6 hPa Calm     84 % 0 mm
22:32 5.6 °C 3.1 °C 1024.6 hPa Calm     84 % 0 mm
22:37 5.5 °C 3 °C 1024.6 hPa Calm     84 % 0 mm
22:38 5.5 °C 3 °C 1024.6 hPa Calm     84 % 0 mm
22:39 5.4 °C 2.9 °C 1024.6 hPa Calm     84 % 0 mm
22:43 5.4 °C 2.9 °C 1024.6 hPa Calm     84 % 0 mm
22:48 5.2 °C 2.7 °C 1024.6 hPa Calm     84 % 0 mm
22:49 5.2 °C 2.7 °C 1024.6 hPa Calm     84 % 0 mm
22:54 5.2 °C 2.8 °C 1024.6 hPa Calm     85 % 0 mm
22:55 5.2 °C 2.8 °C 1024.6 hPa Calm     85 % 0 mm
23:00 5.2 °C 2.8 °C 1024.9 hPa Calm     85 % 0 mm
23:02 5.2 °C 2.7 °C 1024.9 hPa Calm     84 % 0 mm
23:06 5.2 °C 2.7 °C 1024.9 hPa Calm     84 % 0 mm
23:11 5.1 °C 2.8 °C 1024.9 hPa Calm     85 % 0 mm
23:13 5.2 °C 2.7 °C 1024.9 hPa Calm     84 % 0 mm
23:15 5.2 °C 2.7 °C 1024.9 hPa Calm     84 % 0 mm
23:19 5.2 °C 2.9 °C 1024.9 hPa Calm     85 % 0 mm
23:24 5.4 °C 2.9 °C 1024.9 hPa Calm     84 % 0 mm
23:29 5.4 °C 2.9 °C 1024.9 hPa Calm     84 % 0 mm
23:34 5.5 °C 2.8 °C 1024.9 hPa Calm     83 % 0 mm
23:36 5.5 °C 2.8 °C 1024.9 hPa Calm     83 % 0 mm
23:41 5.4 °C 2.8 °C 1024.9 hPa WNW 1.9 km/h   83 % 0 mm
23:42 5.4 °C 2.8 °C 1024.9 hPa WNW 1.9 km/h   83 % 0 mm
23:43 5.5 °C 2.8 °C 1024.9 hPa WNW 1.9 km/h   83 % 0 mm
23:48 5.6 °C 2.9 °C 1024.9 hPa Calm     83 % 0 mm
23:53 5.8 °C 3 °C 1024.6 hPa WNW 1.9 km/h   82 % 0 mm
23:55 5.9 °C 2.9 °C 1024.9 hPa NW 1.9 km/h   81 % 0 mm
23:59 6 °C 3 °C 1024.6 hPa Calm     81 % 0 mm
Park Place, Exeter, Tulare County, California, USA
Compliments of Weather Underground - 3.5 mb